Regional Weather Roundup
Issued by NWS

Home | Current Version | Previous Version | Text Only | Print | Product List | Glossary On
Versions: 1 2 3 4 5 6 7 8 9 10 11 12 13 14 15 16 17 18 19 20 21 22 23 24 25 26 27 28 29 30 31 32 33 34 35 36 37 38 39 40 41 42 43 44 45 46 47 48 49 50
000
ASUS45 KSLC 020010
RWRUT

UTAH REGIONAL WEATHER ROUNDUP
NATIONAL WEATHER SERVICE SALT LAKE CITY UT
600 PM MDT FRI AUG 01 2014

UTZ001>011-023>025-020100-

NORTHERN UTAH

CITY           SKY/WX    TMP DP  RH WIND       PRES   REMARKS
HILL AFB       SUNNY     87  51  28 VRB6      30.13F
LOGAN          SUNNY     89  45  21 W9        30.09F
OGDEN          SUNNY     88  48  25 VRB5      30.09F
PROVO AIRPORT  MOSUNNY   88  46  23 CALM      30.10F
SALT LAKE CITY MOSUNNY   89  47  23 NW13      30.07F
VERNAL         MOSUNNY   86  35  16 W7        30.11F
WENDOVER       SUNNY     90  39  17 SE7       30.08F
HEBER CITY     MOSUNNY   79  43  27 CALM      30.17F
WEST JORDAN    SUNNY     88  54  31 NW9       30.11F

$$

UTZ012>022-026-027-020100-

SOUTHERN UTAH

CITY           SKY/WX    TMP DP  RH WIND       PRES   REMARKS
BRYCE CANYON   PTSUNNY   78  39  24 NW12G22   30.30F
CEDAR CITY     MOSUNNY   87  41  19 NE8       30.14F
MILFORD        SUNNY     90  34  13 N12       30.10F
MOAB/CYNLANDS  SUNNY     88  46  23 N10       30.05F
PRICE          MOSUNNY   83  39  21 W5        30.19F
ST GEORGE      PTCLDY   100  52  19 N6        29.93S HX  98

$$

REGIONAL REPORTS     COLORADO/ARIZONA

CITY           SKY/WX    TMP DP  RH WIND       PRES   REMARKS
CRAIG, CO      MOSUNNY   75  39  27 SE5       30.19F
GRAND JUNCTION PTSUNNY   79  46  31 E18       30.13F
RIFLE          CLOUDY    78  44  29 E14       30.21F
MONTROSE       PTSUNNY   76  50  40 N18G30    30.23R
CORTEZ         SUNNY     81  47  30 NE10G18   30.17F
PAGE, AZ       PTSUNNY   93  45  19 NW8       30.02F
GRAND CANYON   CLOUDY    78  49  35 VRB7      30.26F
KINGMAN        SUNNY     96  49  20 SW10G20   30.00F HX  93
FLAGSTAFF      LGT RAIN  60  50  69 VRB7G16   30.31R

$$

REGIONAL REPORTS    NEVADA/IDAHO/WYOMING

CITY           SKY/WX    TMP DP  RH WIND       PRES   REMARKS
LAS VEGAS, NV  MOSUNNY  104  51  17 S13       29.81F HX 101
ELY            PTSUNNY   87  33  14 N10       30.20F
ELKO           MOSUNNY   90  29  11 NE5       30.11F
POCATELLO, ID  MOSUNNY   88  42  20 N12       30.10F
BURLEY         SUNNY     91  43  18 N6        30.06F
EVANSTON, WY   MOSUNNY   80  26  13 CALM      30.29F
ROCK SPRINGS   MOSUNNY   83  29  14 NE9G18    30.26F

$$



USA.gov is the U.S. government's official web portal to all federal, state and local government web resources and services.